Regional Weather Roundup
Issued by NWS

Home | Current Version | Previous Version | Text Only | Print | Product List | Glossary Off
Versions: 1 2 3 4 5 6 7 8 9 10 11 12 13 14 15 16 17 18 19 20 21 22 23 24 25 26 27 28 29 30 31 32 33 34 35 36 37 38 39 40 41 42 43 44 45 46 47 48 49 50

189
ASUS44 KMEG 270400
RWRTN
TENNESSEE HOURLY STATE WEATHER ROUNDUP
NATIONAL WEATHER SERVICE MEMPHIS TN
1100 PM CDT THU MAY 26 2016

TNZ002-004-019-021-049-052-054-088>092-270500-
WEST TENNESSEE

CITY           SKY/WX    TMP DP  RH WIND       PRES   REMARKS
MEMPHIS INTL   TSTM      71  67  87 E8        29.95F
NWS MEMPHIS      N/A     69 N/A N/A MISG        N/A
JACKSON        LGT RAIN  67  66  97 CALM      30.01F
DYERSBURG      CLOUDY    68  64  88 E7        30.00F
UNION CITY     CLOUDY    68  66  94 S7        29.98F
PARIS          PTCLDY    66  63  88 SW10      30.01F
LEXINGTON      CLEAR     66  66 100 CALM      30.02F
$$

TNZ008-025-027-028-033-062-065-066-270500-
NORTH MIDDLE TENNESSEE

CITY           SKY/WX    TMP DP  RH WIND       PRES   REMARKS
NASHVILLE      CLOUDY    70  64  81 S8        30.01F
CLARKSVILLE    CLOUDY    68  65  90 CALM      29.99S
COOKEVILLE     CLEAR     70  63  78 S3        30.05F
CROSSVILLE     CLOUDY    68  61  78 S3        30.11F
$$

TNZ061-075-076-078-094-096-097-270500-
SOUTH MIDDLE TENNESSEE

CITY           SKY/WX    TMP DP  RH WIND       PRES   REMARKS
TULLAHOMA      CLEAR     68  64  88 CALM      30.07F
WINCHESTER     CLEAR     72  63  73 CALM      30.06F
MCMINNVILLE    CLEAR     68  66  94 CALM      30.06F
COLUMBIA       CLEAR    N/A N/A N/A CALM      30.02
SHELBYVILLE    CLEAR     70  66  88 CALM      30.06S
$$

TNZ017-018-042-046-047-270500-
NORTHEAST TENNESSEE

CITY           SKY/WX    TMP DP  RH WIND       PRES   REMARKS
TRI CITIES     PTCLDY    64  61  90 CALM      30.13R
$$

TNZ012-013-036-069-073-074-270500-
CENTRAL EAST TENNESSEE

CITY           SKY/WX    TMP DP  RH WIND       PRES   REMARKS
KNOXVILLE      CLEAR     70  63  78 E3        30.07F
OAK RIDGE      CLEAR     69  63  81 CALM      30.09F
GATLINBURG     CLEAR     66  64  94 CALM      30.08F
$$

TNZ083-085-099-270500-
SOUTHEAST TENNESSEE

CITY           SKY/WX    TMP DP  RH WIND       PRES   REMARKS
CHATTANOOGA    MOCLDY    74  62  66 CALM      30.06S
$$

SKY/WX REPORTED AS FAIR MEANS FEW OR NO CLOUDS BELOW
12 THOUSAND FEET.





USA.gov is the U.S. government's official web portal to all federal, state and local government web resources and services.